Starlink 33730

operational
NORAD ID: 63439 Int'l Des: 2025-069 Owner: SPXS Country: US Constellation: starlink
LEOCIRCULAR

Starlink 33730について

説明を読み込み中...

リアルタイム位置

3D地球を読み込み中...

次回通過

高度履歴

Altitude vs Time

uPlot chart will show altitude changes over time

軌道要素

1 63439U 25069G 25259.25002315 -.01898643 00000-0 -67819-1 0 9991
2 63439 53.1592 232.4758 0002237 90.7434 169.8194 15.31977042 5848
Epoch: Sep 16, 2025 • Age: 5 hours

現在のステータス

高度 475.1 km
速度 7.63 km/s
衛星直下点 40.40°N, 104.63°E
打ち上げ日 Apr 4, 2025
運用期間 0.4 years
タイプ internet

技術仕様

分類 Payload
質量 575.00 kg
乾燥質量 530.00 kg
総質量 575.00 kg
長さ 0.30 m
直径 4.10 m
スパン 29.00 m
形状 Box + pan
製造者 SPXS
バスタイプ Starlink V2MO
フェーズステータス In Orbit
所有者/国 SPXS/US

大規模コンステレーション

Loading constellations...